Weather History for Defiance, OH

Change the Weather History Date:

Friday, March 29, 2013

  Actual Average Record
Temperature  
Mean Temperature 39 °F -  
Max Temperature 53 °F 53 °F 78 °F (1998)
Min Temperature 25 °F 32 °F 15 °F (1955)
Degree Days  
Heating Degree Days 26    
Moisture  
Dew Point 21 °F    
Average Humidity 54    
Maximum Humidity 88    
Minimum Humidity 25    
Precipitation  
Precipitation 0.00 in - - ()
Sea Level Pressure  
Sea Level Pressure 30.29 in    
Wind  
Wind Speed 2 mph (NW)    
Max Wind Speed 13 mph    
Max Gust Speed -    
Visibility 10 miles    
Events      
Averages and records for this station are not official NWS values.
T = Trace of Precipitation, MM = Missing Value Source: NWS Daily Summary

Daily Weather History Graph

Daily Weather History Graph

Search for Another Location

Airport:

Trip Planner

Search our weather history database for the weather conditions in past years. The results will help you decide how hot, cold, wet, or windy it might be!

Date:

Astronomy

Mar. 29, 2013 Rise Set
Actual Time 7:25 AM EDT 7:59 PM EDT
Civil Twilight 6:57 AM EDT 8:27 PM EDT
Nautical Twilight 6:24 AM EDT 9:00 PM EDT
Astronomical Twilight 5:51 AM EDT 9:34 PM EDT
Moon 11:01 PM EDT (3/29) 8:31 AM EDT (3/29)
Length of Visible Light 13h 30m
Length of Day
12h 34m
Waning Gibbous, 93% of the Moon is Illuminated
Mar 29
Waning Gibbous
Apr 3
Last Quarter
Apr 10
New
Apr 18
First Quarter
Apr 25
Full

Hourly Weather History & Observations

Time (EDT) Temp. Windchill Dew Point Humidity Pressure Visibility Wind Dir Wind Speed Gust Speed Precip Events Conditions
12:53 AM 30.9 °F - 25.0 °F 79% 30.32 in 10.0 mi Calm Calm - N/A   Clear
1:53 AM 30.0 °F - 25.0 °F 82% 30.32 in 10.0 mi Calm Calm - N/A   Clear
2:53 AM 30.0 °F - 24.1 °F 79% 30.32 in 10.0 mi Calm Calm - N/A   Clear
3:53 AM 30.9 °F 27.5 °F 23.0 °F 72% 30.31 in 10.0 mi NW 3.5 mph - N/A   Clear
4:53 AM 28.0 °F - 21.9 °F 78% 30.31 in 10.0 mi Calm Calm - N/A   Clear
5:53 AM 27.0 °F - 21.0 °F 78% 30.31 in 10.0 mi Calm Calm - N/A   Clear
6:53 AM 25.0 °F - 21.0 °F 85% 30.31 in 10.0 mi Calm Calm - N/A   Clear
7:53 AM 25.0 °F - 21.9 °F 88% 30.32 in 9.0 mi Calm Calm - N/A   Clear
8:53 AM 32.0 °F - 27.0 °F 82% 30.32 in 10.0 mi Calm Calm - N/A   Clear
9:53 AM 39.0 °F - 24.1 °F 55% 30.33 in 10.0 mi Calm Calm - N/A   Clear
10:53 AM 43.0 °F 39.5 °F 19.9 °F 40% 30.32 in 10.0 mi Variable 5.8 mph - N/A   Clear
11:53 AM 45.0 °F 43.5 °F 21.0 °F 39% 30.33 in 10.0 mi Variable 3.5 mph - N/A   Clear
12:53 PM 46.9 °F - 21.0 °F 36% 30.31 in 10.0 mi Variable 3.5 mph - N/A   Clear
1:53 PM 50.0 °F - 21.0 °F 32% 30.29 in 10.0 mi NW 9.2 mph - N/A   Clear
2:53 PM 51.1 °F - 19.9 °F 29% 30.27 in 10.0 mi WSW 8.1 mph - N/A   Clear
3:53 PM 52.0 °F - 19.0 °F 27% 30.24 in 10.0 mi North 12.7 mph - N/A   Clear
4:53 PM 53.1 °F - 18.0 °F 25% 30.23 in 10.0 mi WNW 6.9 mph - N/A   Clear
5:53 PM 53.1 °F - 19.0 °F 26% 30.23 in 10.0 mi NW 8.1 mph - N/A   Clear
6:53 PM 51.1 °F - 17.1 °F 26% 30.23 in 10.0 mi NW 5.8 mph - N/A   Clear
7:53 PM 48.0 °F - 18.0 °F 30% 30.23 in 10.0 mi NW 3.5 mph - N/A   Clear
8:53 PM 41.0 °F - 19.9 °F 43% 30.24 in 10.0 mi Calm Calm - N/A   Clear
9:53 PM 37.9 °F - 21.9 °F 53% 30.25 in 10.0 mi Calm Calm - N/A   Clear
10:53 PM 37.9 °F - 21.9 °F 53% 30.25 in 10.0 mi Calm Calm - N/A   Clear
11:53 PM 37.0 °F - 21.0 °F 52% 30.25 in 10.0 mi Calm Calm - N/A   Clear